M I D A S
Marine Information and Data Acquisition System
Tripno 715 of the Zeeleeuw from 2004-05-12 06:32:25 to 2004-05-12 16:00:46
Back to CruiseResearch ActivitiesStationsMapUnderway DataData graphs

EquipmentUnitsComments
TimeDGPSUTC
LatitudeDGPSDM.mWGS84
LongitudeDGPSDM.mWGS84
SpeedMeteo Stationm/sRelative wind speed
DirectionMeteo StationdegRelative wind direction
TemperatureMeteo Stationdeg CelciusAir temperature
PressureMeteo StationPaAtmospheric pressure
HumidityMeteo Station%Relative humidity
Missing or incorrect values are displayed as -999
Metereological data collected by the RV Zeeleeuw from 2004-05-12 06:32:25 to 2004-05-12 16:00:46
Time Latitude Longitude Speed Direction Temperature Pressure Humidity
2004-05-12 06:33 51°13.609 2°56.049 6.2 258 9.1 102130 72
2004-05-12 06:34 51°13.644 2°55.937 5 235 9.1 102130 73
2004-05-12 06:35 51°13.686 2°55.824 4.3 257 9.2 102120 73
2004-05-12 06:36 51°13.702 2°55.776 5.5 274 9.1 102130 72
2004-05-12 06:37 51°13.696 2°55.748 6.5 280 9.1 102130 73
2004-05-12 06:38 51°13.707 2°55.765 5.8 324 9.1 102120 72
2004-05-12 06:39 51°13.7 2°55.751 7.3 10 9.1 102130 72
2004-05-12 06:40 51°13.779 2°55.685 7.1 32 9.1 102120 73
2004-05-12 06:41 51°13.877 2°55.591 10.3 40 9.1 102100 73
2004-05-12 06:42 51°13.988 2°55.51 10 31 9 102100 73
2004-05-12 06:43 51°14.108 2°55.431 9.6 28 9 102100 73
2004-05-12 06:44 51°14.247 2°55.304 10.3 39 9 102090 74
2004-05-12 06:45 51°14.368 2°55.046 13.3 49 9.1 102080 76
2004-05-12 06:46 51°14.496 2°54.777 13.9 40 9.1 102060 76
2004-05-12 06:47 51°14.624 2°54.507 11.8 43 9.1 102060 76
2004-05-12 06:48 51°14.739 2°54.222 14.3 56 9.1 102060 77
2004-05-12 06:49 51°14.837 2°53.918 13.1 48 9.1 102050 76
2004-05-12 06:50 51°14.918 2°53.609 13.3 47 9.1 102050 77
2004-05-12 06:51 51°14.997 2°53.293 14 53 9.1 102070 77
2004-05-12 06:52 51°15.075 2°52.979 14.6 54 9.1 102060 76
2004-05-12 06:53 51°15.154 2°52.662 15.2 50 9.1 102060 77
2004-05-12 06:54 51°15.224 2°52.339 14.4 58 9.1 102060 76
2004-05-12 06:55 51°15.284 2°52.01 13.9 58 9 102060 74
2004-05-12 06:56 51°15.315 2°51.675 11 71 9 102070 74
2004-05-12 06:57 51°15.283 2°51.348 8.8 80 9 102090 75
2004-05-12 06:58 51°15.246 2°51.007 8.9 66 9 102090 75
2004-05-12 06:59 51°15.209 2°50.667 9.2 80 9 102090 75
2004-05-12 07:00 51°15.174 2°50.333 8.1 69 9 102100 74
2004-05-12 07:01 51°15.141 2°50.005 9.9 80 9 102100 75
2004-05-12 07:02 51°15.109 2°49.67 9 75 9 102110 75
2004-05-12 07:03 51°15.078 2°49.335 8.4 73 9.1 102120 75
2004-05-12 07:04 51°15.046 2°48.999 7.6 71 9.1 102130 76
2004-05-12 07:05 51°15.013 2°48.665 8.3 74 9.1 102120 74
2004-05-12 07:06 51°14.981 2°48.328 9.9 68 9 102120 74
2004-05-12 07:07 51°14.947 2°47.997 9.9 71 9 102110 75
2004-05-12 07:08 51°14.916 2°47.664 9.6 63 9 102120 74
2004-05-12 07:09 51°14.885 2°47.332 8.4 65 9 102120 74
2004-05-12 07:10 51°14.851 2°47.002 7.9 74 9 102120 75
2004-05-12 07:11 51°14.815 2°46.664 7.1 76 9.1 102120 75
2004-05-12 07:12 51°14.783 2°46.327 9.5 82 9.2 102120 77
2004-05-12 07:13 51°14.752 2°45.998 9.2 61 9.2 102120 78
2004-05-12 07:14 51°14.722 2°45.662 9.2 59 9.2 102120 77
2004-05-12 07:15 51°14.691 2°45.329 9.2 71 9.2 102110 77
2004-05-12 07:16 51°14.659 2°44.994 7.9 73 9.1 102120 77
2004-05-12 07:17 51°14.629 2°44.676 9.9 74 9.1 102120 77
2004-05-12 07:18 51°14.598 2°44.341 8.9 69 9.1 102130 76
2004-05-12 07:19 51°14.57 2°44.004 9.8 63 9.1 102120 77
2004-05-12 07:20 51°14.541 2°43.682 10.2 61 9 102120 76
2004-05-12 07:21 51°14.509 2°43.352 11.2 68 9.1 102120 77
2004-05-12 07:22 51°14.48 2°43.02 10.8 73 9.1 102130 77
2004-05-12 07:23 51°14.448 2°42.69 10.9 75 9 102120 76
2004-05-12 07:24 51°14.42 2°42.362 10.5 70 9 102120 76
2004-05-12 07:25 51°14.392 2°42.017 10.7 67 9.1 102110 77
2004-05-12 07:26 51°14.359 2°41.692 10.5 80 9.1 102130 76
2004-05-12 07:27 51°14.328 2°41.358 7.4 74 9.1 102140 76
2004-05-12 07:28 51°14.302 2°41.023 8.2 70 9.1 102150 76
2004-05-12 07:29 51°14.28 2°40.692 6 72 9 102150 75
2004-05-12 07:30 51°14.257 2°40.348 7.7 78 9 102150 75
2004-05-12 07:31 51°14.234 2°40.013 9.7 50 9.1 102140 76
2004-05-12 07:32 51°14.211 2°39.669 10.1 57 9 102140 76
2004-05-12 07:33 51°14.186 2°39.331 8.2 71 9 102140 76
2004-05-12 07:34 51°14.149 2°39.003 7.5 72 9 102150 75
2004-05-12 07:35 51°14.115 2°38.666 8 70 9 102150 76
2004-05-12 07:36 51°14.066 2°38.335 8.6 76 9.1 102140 76
2004-05-12 07:37 51°13.991 2°38.019 10.2 82 9 102140 76
2004-05-12 07:38 51°13.901 2°37.727 8.2 83 9 102150 76
2004-05-12 07:39 51°13.79 2°37.439 8.5 81 9.1 102150 76
2004-05-12 07:40 51°13.701 2°37.121 8.5 74 9 102150 75
2004-05-12 07:41 51°13.619 2°36.808 9.6 87 9 102150 75
2004-05-12 07:42 51°13.541 2°36.492 8.2 74 9 102160 75
2004-05-12 07:43 51°13.466 2°36.176 5.6 79 9 102150 74
2004-05-12 07:44 51°13.389 2°35.851 5.8 75 9 102160 74
2004-05-12 07:45 51°13.313 2°35.532 5 77 9 102160 74
2004-05-12 07:46 51°13.229 2°35.221 6.2 66 9 102160 74
2004-05-12 07:47 51°13.146 2°34.897 7.2 67 9 102160 74
2004-05-12 07:48 51°13.067 2°34.577 6.7 74 9 102160 75
2004-05-12 07:49 51°12.988 2°34.265 6.1 88 9 102160 76
2004-05-12 07:50 51°12.91 2°33.947 5.8 65 9 102160 76
2004-05-12 07:51 51°12.826 2°33.611 6.7 74 9.1 102160 77
2004-05-12 07:52 51°12.747 2°33.295 7.9 78 9.1 102160 77
2004-05-12 07:53 51°12.664 2°32.975 6.8 79 9.1 102150 77
2004-05-12 07:54 51°12.581 2°32.652 7.7 73 9.1 102150 77
2004-05-12 07:55 51°12.5 2°32.34 6.3 71 9.1 102160 75
2004-05-12 07:56 51°12.418 2°32.009 6.5 74 9 102160 75
2004-05-12 07:57 51°12.335 2°31.689 5.4 79 9 102160 75
2004-05-12 07:58 51°12.242 2°31.38 6.6 96 9.1 102160 76
2004-05-12 07:59 51°12.156 2°31.08 8.5 73 9.1 102160 77
2004-05-12 08:00 51°12.063 2°30.76 9.7 76 9.1 102150 77
2004-05-12 08:01 51°11.975 2°30.446 9.4 75 9 102150 78
2004-05-12 08:02 51°11.883 2°30.139 10.3 61 9 102140 76
2004-05-12 08:03 51°11.791 2°29.832 9.1 74 8.9 102150 77
2004-05-12 08:04 51°11.7 2°29.523 11 83 8.9 102150 76
2004-05-12 08:05 51°11.607 2°29.208 11.8 81 8.9 102150 77
2004-05-12 08:06 51°11.516 2°28.901 8.6 65 8.9 102150 76
2004-05-12 08:07 51°11.425 2°28.587 10 82 9 102140 76
2004-05-12 08:08 51°11.345 2°28.275 8 77 9 102150 77
2004-05-12 08:09 51°11.262 2°27.949 8.8 78 9 102160 76
2004-05-12 08:10 51°11.19 2°27.63 8.6 71 9 102150 76
2004-05-12 08:11 51°11.123 2°27.32 10 87 9 102150 76
2004-05-12 08:12 51°11.07 2°27.083 8.8 68 9 102170 76
2004-05-12 08:13 51°11.018 2°26.852 8.2 65 9 102170 76
2004-05-12 08:14 51°10.969 2°26.615 6 104 9 102180 75
2004-05-12 08:15 51°10.92 2°26.38 6.2 102 9 102180 74
2004-05-12 08:16 51°10.885 2°26.144 7.1 99 9 102170 75
2004-05-12 08:17 51°10.851 2°25.902 6.7 94 9.1 102180 76
2004-05-12 08:18 51°10.815 2°25.657 7 97 9.1 102180 75
2004-05-12 08:19 51°10.781 2°25.414 6 112 9 102190 75
2004-05-12 08:20 51°10.746 2°25.176 5.8 100 9.1 102200 76
2004-05-12 08:21 51°10.711 2°24.931 5.6 102 9.1 102180 76
2004-05-12 08:22 51°10.68 2°24.693 6.4 104 9.1 102170 76
2004-05-12 08:23 51°10.648 2°24.45 7.4 100 9.1 102170 77
2004-05-12 08:24 51°10.597 2°24.111 7.7 91 9.1 102170 77
2004-05-12 08:25 51°10.521 2°23.789 5.9 70 9.1 102170 78
2004-05-12 08:26 51°10.418 2°23.499 7.2 88 9.1 102170 77
2004-05-12 08:27 51°10.285 2°23.22 5.3 75 9.1 102170 77
2004-05-12 08:28 51°10.163 2°22.936 6.4 82 9.1 102170 77
2004-05-12 08:29 51°10.041 2°22.649 6.9 71 9.1 102170 77
2004-05-12 08:30 51°9.924 2°22.379 6.6 92 9.1 102160 76
2004-05-12 08:31 51°9.796 2°22.082 6.6 77 9.1 102160 77
2004-05-12 08:32 51°9.678 2°21.801 8.6 82 9.1 102170 76
2004-05-12 08:33 51°9.555 2°21.511 8.2 79 9 102180 76
2004-05-12 08:34 51°9.437 2°21.209 7.5 89 9 102170 76
2004-05-12 08:35 51°9.322 2°20.913 7.7 84 9.1 102180 77
2004-05-12 08:36 51°9.214 2°20.624 7 79 9.1 102180 76
2004-05-12 08:37 51°9.088 2°20.316 6.7 81 9.1 102180 75
2004-05-12 08:38 51°8.992 2°19.993 9.3 67 9.1 102180 76
2004-05-12 08:39 51°8.994 2°19.642 10.9 48 9 102170 74
2004-05-12 08:40 51°9.001 2°19.279 8.9 66 9 102170 74
2004-05-12 08:41 51°9.008 2°18.938 11 66 9 102170 74
2004-05-12 08:42 51°9.035 2°18.574 12.2 55 9.1 102160 75
2004-05-12 08:43 51°9.059 2°18.222 10.5 60 9 102170 74
2004-05-12 08:44 51°9.084 2°17.864 10.7 57 9 102170 75
2004-05-12 08:45 51°9.108 2°17.5 9 57 9 102170 75
2004-05-12 08:46 51°9.133 2°17.134 8.2 63 9 102180 75
2004-05-12 08:47 51°9.156 2°16.78 8.2 64 9 102180 75
2004-05-12 08:48 51°9.18 2°16.419 8.6 55 9 102180 75
2004-05-12 08:49 51°9.2 2°16.055 10.3 65 9 102180 76
2004-05-12 08:50 51°9.207 2°15.694 9 56 9 102180 75
2004-05-12 08:51 51°9.213 2°15.338 10.4 67 9 102180 75
2004-05-12 08:52 51°9.208 2°14.98 8.6 67 9 102180 76
2004-05-12 08:53 51°9.175 2°14.618 6.8 77 9 102190 75
2004-05-12 08:54 51°9.049 2°14.324 6.6 86 9 102200 75
2004-05-12 08:55 51°8.915 2°14.047 6.7 88 9 102200 74
2004-05-12 08:56 51°8.78 2°13.76 5.1 80 9 102200 75
2004-05-12 08:57 51°8.64 2°13.471 4.5 100 9 102210 74
2004-05-12 08:58 51°8.5 2°13.185 7.2 93 9 102220 74
2004-05-12 08:59 51°8.371 2°12.909 6.8 94 9.1 102200 75
2004-05-12 09:00 51°8.227 2°12.608 5.5 96 9.1 102200 74
2004-05-12 09:01 51°8.093 2°12.336 5.4 107 9.1 102210 74
2004-05-12 09:02 51°7.951 2°12.047 4.7 97 9.1 102210 74
2004-05-12 09:03 51°7.769 2°11.735 6.6 97 9.1 102200 74
2004-05-12 09:04 51°7.612 2°11.463 6.3 94 9.2 102210 74
2004-05-12 09:05 51°7.446 2°11.163 3.1 103 9.1 102210 74
2004-05-12 09:06 51°7.288 2°10.899 3.7 81 9.1 102210 75
2004-05-12 09:07 51°7.138 2°10.623 5.2 96 9.2 102210 75
2004-05-12 09:08 51°7.005 2°10.33 5.8 105 9.1 102210 74
2004-05-12 09:09 51°6.883 2°10.017 5.4 95 9.1 102210 74
2004-05-12 09:10 51°6.765 2°9.707 5.3 107 9.2 102200 75
2004-05-12 09:11 51°6.641 2°9.394 5.3 97 9.2 102200 75
2004-05-12 09:12 51°6.519 2°9.081 6.6 98 9.2 102200 75
2004-05-12 09:13 51°6.412 2°8.757 8.6 90 9.2 102190 75
2004-05-12 09:14 51°6.309 2°8.437 6.8 103 9.2 102190 76
2004-05-12 09:15 51°6.271 2°8.243 8.5 105 9.2 102210 76
2004-05-12 09:16 51°6.262 2°8.154 8.4 127 9.2 102220 75
2004-05-12 09:17 51°6.254 2°8.108 7.2 125 9.2 102220 75
2004-05-12 09:18 51°6.249 2°8.037 7.5 117 9.2 102220 75
2004-05-12 09:19 51°6.242 2°7.948 7.5 125 9.2 102220 75
2004-05-12 09:20 51°6.232 2°7.864 6.5 113 9.2 102220 75
2004-05-12 09:21 51°6.219 2°7.776 6.8 124 9.2 102220 76
2004-05-12 09:22 51°6.208 2°7.7 6.6 130 9.1 102220 75
2004-05-12 09:23 51°6.198 2°7.628 7.8 121 9.2 102210 76
2004-05-12 09:24 51°6.192 2°7.553 6.6 113 9.1 102220 76
2004-05-12 09:25 51°6.186 2°7.477 5.7 128 9.2 102220 77
2004-05-12 09:26 51°6.169 2°7.378 7.6 130 9.2 102220 77
2004-05-12 09:27 51°6.148 2°7.294 6.4 130 9.2 102220 76
2004-05-12 09:28 51°6.122 2°7.21 6.7 135 9.2 102220 76
2004-05-12 09:30 51°6.094 2°7.117 5.7 137 9.2 102220 76
2004-05-12 09:31 51°6.066 2°7.025 5.4 126 9.3 102230 77
2004-05-12 09:32 51°6.039 2°6.942 6.9 122 9.3 102230 77
2004-05-12 09:33 51°6.013 2°6.855 5.4 131 9.3 102230 77
2004-05-12 09:34 51°5.99 2°6.772 5 125 9.2 102230 76
2004-05-12 09:35 51°5.97 2°6.677 6.5 131 9.3 102230 77
2004-05-12 09:36 51°5.958 2°6.58 4.4 117 9.3 102220 77
2004-05-12 09:37 51°5.949 2°6.481 6.5 109 9.2 102220 76
2004-05-12 09:38 51°5.944 2°6.383 7.4 107 9.3 102230 77
2004-05-12 09:39 51°5.937 2°6.293 6.2 113 9.2 102220 76
2004-05-12 09:40 51°5.93 2°6.198 6.6 112 9.3 102220 77
2004-05-12 09:41 51°5.923 2°6.11 8.2 111 9.2 102220 77
2004-05-12 09:42 51°5.916 2°6.015 7.6 101 9.3 102220 77
2004-05-12 09:43 51°5.916 2°5.929 7.3 107 9.3 102230 78
2004-05-12 09:44 51°5.921 2°5.831 7.8 97 9.3 102230 78
2004-05-12 09:45 51°5.928 2°5.738 8 83 9.3 102220 78
2004-05-12 09:46 51°5.935 2°5.665 8.7 76 9.3 102230 78
2004-05-12 09:47 51°5.94 2°5.606 11 51 9.2 102230 76
2004-05-12 09:48 51°6.012 2°5.538 11.9 355 9.1 102200 76
2004-05-12 09:49 51°6.05 2°5.575 10 308 9.2 102210 76
2004-05-12 09:50 51°6.056 2°5.644 9 312 9.3 102210 76
2004-05-12 09:51 51°6.067 2°5.707 10.1 321 9.2 102210 75
2004-05-12 09:52 51°6.08 2°5.773 9.4 309 9.2 102210 74
2004-05-12 09:53 51°6.088 2°5.856 8.6 304 9.3 102210 74
2004-05-12 09:54 51°6.102 2°5.94 8.8 41 9.3 102210 75
2004-05-12 09:55 51°6.117 2°6.012 9.8 300 9.4 102190 75
2004-05-12 09:56 51°6.122 2°6.08 9.3 293 9.4 102210 74
2004-05-12 09:57 51°6.121 2°6.149 7.8 291 9.3 102210 73
2004-05-12 09:58 51°6.113 2°6.212 7.1 285 9.3 102220 73
2004-05-12 09:59 51°6.104 2°6.277 9.1 292 9.4 102210 74
2004-05-12 10:00 51°6.098 2°6.344 7.6 288 9.4 102210 74
2004-05-12 10:01 51°6.094 2°6.408 8 293 9.4 102220 74
2004-05-12 10:02 51°6.091 2°6.473 7.9 297 9.3 102210 74
2004-05-12 10:03 51°6.09 2°6.541 9.6 301 9.4 102230 75
2004-05-12 10:04 51°6.088 2°6.607 8.5 287 9.4 102210 76
2004-05-12 10:05 51°6.089 2°6.67 8.4 296 9.4 102210 75
2004-05-12 10:06 51°6.093 2°6.73 7.1 312 9.4 102220 76
2004-05-12 10:07 51°6.105 2°6.787 7.2 325 9.5 102220 77
2004-05-12 10:08 51°6.116 2°6.842 8.5 315 9.5 102210 77
2004-05-12 10:09 51°6.128 2°6.896 7.1 321 9.4 102210 76
2004-05-12 10:10 51°6.141 2°6.952 7.3 320 9.5 102220 77
2004-05-12 10:11 51°6.146 2°7.012 6.3 305 9.5 102210 78
2004-05-12 10:12 51°6.146 2°7.073 8.9 301 9.5 102220 78
2004-05-12 10:13 51°6.15 2°7.131 8.4 309 9.4 102210 77
2004-05-12 10:14 51°6.159 2°7.182 9.4 314 9.4 102220 77
2004-05-12 10:15 51°6.171 2°7.234 7.8 43 9.4 102230 76
2004-05-12 10:16 51°6.187 2°7.28 8 321 9.4 102240 76
2004-05-12 10:17 51°6.209 2°7.317 8.4 329 9.3 102220 76
2004-05-12 10:18 51°6.226 2°7.355 7.4 316 9.3 102220 75
2004-05-12 10:20 51°6.234 2°7.406 7.1 306 9.3 102240 75
2004-05-12 10:21 51°6.238 2°7.457 7.1 312 9.3 102230 76
2004-05-12 10:22 51°6.243 2°7.508 7.7 314 9.4 102230 76
2004-05-12 10:23 51°6.249 2°7.568 8.6 318 9.4 102230 76
2004-05-12 10:24 51°6.258 2°7.632 8.9 303 9.4 102230 76
2004-05-12 10:25 51°6.271 2°7.693 10.4 315 9.4 102220 77
2004-05-12 10:26 51°6.29 2°7.741 8.1 325 9.4 102220 76
2004-05-12 10:27 51°6.312 2°7.79 7.9 326 9.4 102230 77
2004-05-12 10:28 51°6.33 2°7.843 9 310 9.4 102230 76
2004-05-12 10:29 51°6.344 2°7.902 7.8 326 9.4 102230 78
2004-05-12 10:30 51°6.35 2°7.925 7.5 319 9.4 102240 76
2004-05-12 10:31 51°6.349 2°7.928 8 42 9.4 102220 76
2004-05-12 10:32 51°6.339 2°7.92 6 306 9.3 102230 76
2004-05-12 10:33 51°6.36 2°7.973 9.1 338 9.4 102220 77
2004-05-12 10:34 51°6.426 2°8.154 11.1 333 9.4 102220 76
2004-05-12 10:35 51°6.513 2°8.431 13.4 330 9.4 102190 76
2004-05-12 10:36 51°6.6 2°8.723 12.7 337 9.4 102190 76
2004-05-12 10:37 51°6.692 2°9.027 12.4 339 9.4 102200 76
2004-05-12 10:38 51°6.782 2°9.323 12.6 342 9.4 102200 76
2004-05-12 10:39 51°6.873 2°9.622 13.1 336 9.4 102220 76
2004-05-12 10:40 51°6.955 2°9.924 13.3 333 9.4 102200 76
2004-05-12 10:41 51°7.041 2°10.227 13.2 333 9.4 102190 76
2004-05-12 10:42 51°7.123 2°10.521 13.2 327 9.3 102190 76
2004-05-12 10:43 51°7.212 2°10.834 14 327 9.4 102180 77
2004-05-12 10:44 51°7.299 2°11.136 14.1 331 9.4 102200 76
2004-05-12 10:45 51°7.385 2°11.439 14.8 322 9.4 102190 76
2004-05-12 10:46 51°7.469 2°11.74 13.7 333 9.4 102200 76
2004-05-12 10:47 51°7.555 2°12.041 13.7 336 9.4 102210 76
2004-05-12 10:48 51°7.655 2°12.308 12.2 334 9.4 102190 75
2004-05-12 10:49 51°7.723 2°12.39 10.9 340 9.5 102200 75
2004-05-12 10:50 51°7.74 2°12.41 8.5 230 9.5 102220 74
2004-05-12 10:51 51°7.768 2°12.446 10.5 332 9.5 102220 74
2004-05-12 10:52 51°7.807 2°12.494 9.5 325 9.5 102210 73
2004-05-12 10:53 51°7.84 2°12.558 9.8 330 9.6 102220 74
2004-05-12 10:54 51°7.876 2°12.612 8.4 323 9.5 102220 73
2004-05-12 10:55 51°7.906 2°12.678 10.1 318 9.6 102210 74
2004-05-12 10:56 51°7.936 2°12.744 8.7 324 9.6 102210 73
2004-05-12 10:57 51°7.973 2°12.798 9.6 331 9.6 102210 74
2004-05-12 10:58 51°8.013 2°12.841 8.1 325 9.6 102210 74
2004-05-12 10:59 51°8.036 2°12.912 9.6 43 9.6 102230 74
2004-05-12 11:00 51°8.068 2°12.982 9.1 317 9.7 102220 75
2004-05-12 11:01 51°8.101 2°13.053 10.4 313 9.7 102210 75
2004-05-12 11:02 51°8.133 2°13.126 8.9 43 9.6 102210 75
2004-05-12 11:03 51°8.166 2°13.194 10.1 309 9.6 102210 75
2004-05-12 11:04 51°8.199 2°13.261 10.3 326 9.6 102210 75
2004-05-12 11:05 51°8.234 2°13.324 10.3 325 9.6 102220 75
2004-05-12 11:06 51°8.269 2°13.383 9.8 317 9.6 102200 76
2004-05-12 11:07 51°8.306 2°13.44 8.3 322 9.6 102220 77
2004-05-12 11:08 51°8.346 2°13.498 9.6 328 9.7 102220 77
2004-05-12 11:09 51°8.382 2°13.559 9.9 322 9.5 102210 77
2004-05-12 11:10 51°8.421 2°13.614 9.3 320 9.5 102210 77
2004-05-12 11:11 51°8.46 2°13.662 10.3 322 9.5 102220 77
2004-05-12 11:12 51°8.496 2°13.711 10.4 335 9.5 102210 77
2004-05-12 11:13 51°8.535 2°13.759 10.5 326 9.5 102210 76
2004-05-12 11:14 51°8.583 2°13.808 11.2 336 9.5 102210 75
2004-05-12 11:15 51°8.622 2°13.854 9.9 326 9.5 102210 75
2004-05-12 11:16 51°8.652 2°13.913 9.4 42 9.5 102200 76
2004-05-12 11:17 51°8.672 2°13.982 11.6 306 9.6 102200 75
2004-05-12 11:18 51°8.688 2°14.054 10.2 231 9.6 102200 75
2004-05-12 11:19 51°8.718 2°14.108 11.6 327 9.6 102210 76
2004-05-12 11:20 51°8.751 2°14.16 10.5 325 9.6 102210 75
2004-05-12 11:21 51°8.781 2°14.213 9.7 322 9.6 102210 74
2004-05-12 11:22 51°8.803 2°14.272 9.4 316 9.6 102210 75
2004-05-12 11:23 51°8.815 2°14.34 10.3 301 9.6 102210 75
2004-05-12 11:24 51°8.814 2°14.412 9.5 270 9.6 102210 75
2004-05-12 11:25 51°8.8 2°14.45 9.3 263 9.6 102230 75
2004-05-12 11:26 51°8.774 2°14.473 7.7 228 9.6 102230 76
2004-05-12 11:27 51°8.716 2°14.442 6.4 146 9.6 102240 76
2004-05-12 11:28 51°8.668 2°14.366 7.8 137 9.5 102240 75
2004-05-12 11:29 51°8.631 2°14.284 7.4 126 9.6 102240 77
2004-05-12 11:30 51°8.603 2°14.201 7.9 135 9.5 102240 76
2004-05-12 11:31 51°8.579 2°14.123 6.3 120 9.5 102230 77
2004-05-12 11:32 51°8.555 2°14.051 7.4 136 9.5 102220 77
2004-05-12 11:33 51°8.522 2°13.981 7.6 137 9.5 102230 77
2004-05-12 11:34 51°8.484 2°13.915 6.3 154 9.5 102220 77
2004-05-12 11:35 51°8.445 2°13.85 7 150 9.5 102220 78
2004-05-12 11:36 51°8.406 2°13.779 7 146 9.5 102210 78
2004-05-12 11:37 51°8.368 2°13.708 7.9 140 9.5 102220 79
2004-05-12 11:38 51°8.332 2°13.633 8.7 138 9.4 102220 78
2004-05-12 11:39 51°8.292 2°13.566 8 156 9.4 102220 78
2004-05-12 11:40 51°8.248 2°13.516 5.2 174 9.4 102230 78
2004-05-12 11:41 51°8.197 2°13.471 5.6 166 9.4 102230 78
2004-05-12 11:42 51°8.147 2°13.423 7.4 163 9.4 102230 79
2004-05-12 11:43 51°8.096 2°13.372 7 162 9.4 102230 78
2004-05-12 11:44 51°8.046 2°13.322 7.5 162 9.5 102230 79
2004-05-12 11:45 51°7.997 2°13.264 8.8 148 9.4 102220 77
2004-05-12 11:46 51°7.952 2°13.2 8 149 9.4 102220 77
2004-05-12 11:47 51°7.908 2°13.139 5.5 154 9.4 102220 78
2004-05-12 11:48 51°7.865 2°13.084 7.1 157 9.5 102230 79
2004-05-12 11:49 51°7.826 2°13.021 9.1 135 9.5 102220 79
2004-05-12 11:50 51°7.792 2°12.949 9 125 9.5 102210 78
2004-05-12 11:51 51°7.764 2°12.873 8.4 128 9.5 102220 78
2004-05-12 11:52 51°7.734 2°12.801 8.7 123 9.5 102230 77
2004-05-12 11:53 51°7.702 2°12.729 8.7 128 9.5 102220 78
2004-05-12 11:54 51°7.669 2°12.659 9 127 9.5 102220 78
2004-05-12 11:55 51°7.634 2°12.591 8.9 127 9.5 102230 78
2004-05-12 11:56 51°7.602 2°12.519 8.8 120 9.5 102210 78
2004-05-12 11:57 51°7.574 2°12.449 9.8 119 9.5 102220 78
2004-05-12 11:58 51°7.546 2°12.372 9.1 122 9.4 102230 77
2004-05-12 11:59 51°7.521 2°12.297 8.9 109 9.4 102230 77
2004-05-12 12:00 51°7.503 2°12.22 9.6 100 9.4 102230 78
2004-05-12 12:01 51°7.49 2°12.145 8.9 93 9.4 102220 78
2004-05-12 12:02 51°7.479 2°12.073 9.7 87 9.5 102230 79
2004-05-12 12:03 51°7.472 2°11.989 8.2 82 9.4 102240 78
2004-05-12 12:04 51°7.475 2°11.892 9.8 65 9.4 102220 79
2004-05-12 12:05 51°7.482 2°11.79 10 56 9.4 102240 79
2004-05-12 12:06 51°7.499 2°11.695 10.4 33 9.4 102230 79
2004-05-12 12:07 51°7.515 2°11.623 9.3 19 9.4 102200 79
2004-05-12 12:08 51°7.536 2°11.595 9.7 327 9.5 102220 79
2004-05-12 12:09 51°7.553 2°11.627 10.9 315 9.5 102210 79
2004-05-12 12:10 51°7.614 2°11.766 13.7 336 9.5 102190 78
2004-05-12 12:11 51°7.738 2°11.984 14.5 339 9.6 102180 78
2004-05-12 12:12 51°7.872 2°12.223 15.5 335 9.6 102170 78
2004-05-12 12:13 51°8 2°12.458 15.8 341 9.6 102170 79
2004-05-12 12:14 51°8.134 2°12.712 14.2 338 9.6 102180 78
2004-05-12 12:15 51°8.252 2°12.974 12.4 332 9.6 102180 78
2004-05-12 12:16 51°8.368 2°13.238 13.8 330 9.6 102190 79
2004-05-12 12:17 51°8.473 2°13.512 13.2 330 9.6 102200 79
2004-05-12 12:18 51°8.567 2°13.795 13.5 323 9.6 102190 79
2004-05-12 12:19 51°8.624 2°14.097 12.8 320 9.6 102190 79
2004-05-12 12:20 51°8.562 2°14.376 8.4 287 9.5 102200 79
2004-05-12 12:21 51°8.441 2°14.634 6.9 289 9.5 102220 79
2004-05-12 12:22 51°8.271 2°14.832 3.5 287 9.5 102230 79
2004-05-12 12:23 51°8.049 2°14.859 0.8 98 9.5 102230 79
2004-05-12 12:24 51°7.822 2°14.706 6.6 93 9.5 102230 79
2004-05-12 12:25 51°7.655 2°14.469 2.9 145 9.5 102230 79
2004-05-12 12:26 51°7.547 2°14.406 3.9 205 9.5 102230 80
2004-05-12 12:27 51°7.496 2°14.395 5.5 253 9.6 102220 80
2004-05-12 12:28 51°7.468 2°14.423 8.9 299 9.5 102220 79
2004-05-12 12:29 51°7.463 2°14.472 8.1 307 9.4 102210 80
2004-05-12 12:30 51°7.471 2°14.522 9 307 9.5 102210 80
2004-05-12 12:31 51°7.483 2°14.577 9 307 9.5 102210 81
2004-05-12 12:32 51°7.486 2°14.639 8.8 304 9.5 102210 81
2004-05-12 12:33 51°7.49 2°14.7 8.2 309 9.5 102210 80
2004-05-12 12:34 51°7.495 2°14.76 9.6 299 9.5 102210 81
2004-05-12 12:35 51°7.494 2°14.822 9.8 297 9.5 102210 81
2004-05-12 12:36 51°7.492 2°14.89 9.1 304 9.5 102210 81
2004-05-12 12:37 51°7.489 2°14.956 8.6 294 9.5 102210 81
2004-05-12 12:38 51°7.486 2°15.023 10 303 9.6 102210 82
2004-05-12 12:39 51°7.485 2°15.09 9.8 301 9.6 102210 82
2004-05-12 12:40 51°7.487 2°15.155 9.8 308 9.6 102210 82
2004-05-12 12:41 51°7.494 2°15.211 9.4 315 9.6 102200 82
2004-05-12 12:42 51°7.5 2°15.268 8.8 310 9.6 102200 82
2004-05-12 12:43 51°7.506 2°15.326 11.4 314 9.6 102210 81
2004-05-12 12:44 51°7.51 2°15.387 10.1 311 9.6 102190 81
2004-05-12 12:45 51°7.516 2°15.447 9.1 314 9.6 102200 81
2004-05-12 12:46 51°7.524 2°15.506 9.4 318 9.7 102200 82
2004-05-12 12:47 51°7.534 2°15.572 11.5 317 9.6 102200 81
2004-05-12 12:48 51°7.544 2°15.63 9.9 313 9.6 102190 81
2004-05-12 12:49 51°7.557 2°15.687 9.7 310 9.6 102190 81
2004-05-12 12:50 51°7.567 2°15.743 10.5 319 9.7 102190 81
2004-05-12 12:51 51°7.58 2°15.8 9.6 317 9.7 102200 81
2004-05-12 12:52 51°7.597 2°15.852 9.9 321 9.6 102190 82
2004-05-12 12:53 51°7.616 2°15.905 11 322 9.7 102200 82
2004-05-12 12:54 51°7.636 2°15.959 9.3 329 9.6 102200 82
2004-05-12 12:55 51°7.655 2°16.011 8.8 330 9.6 102190 81
2004-05-12 12:56 51°7.674 2°16.065 9.6 334 9.5 102190 82
2004-05-12 12:57 51°7.694 2°16.116 9.9 328 9.5 102200 82
2004-05-12 12:58 51°7.714 2°16.173 11.4 324 9.5 102200 82
2004-05-12 12:59 51°7.733 2°16.225 10.4 320 9.5 102200 82
2004-05-12 13:00 51°7.756 2°16.274 9.5 339 9.5 102190 82
2004-05-12 13:01 51°7.781 2°16.315 10.6 335 9.5 102190 83
2004-05-12 13:02 51°7.804 2°16.358 10 335 9.4 102200 83
2004-05-12 13:03 51°7.828 2°16.398 9.8 341 9.4 102200 83
2004-05-12 13:04 51°7.847 2°16.423 8.6 336 9.4 102200 83
2004-05-12 13:05 51°7.851 2°16.426 7.2 338 9.3 102210 83
2004-05-12 13:06 51°7.846 2°16.42 7.8 337 9.4 102200 84
2004-05-12 13:07 51°7.882 2°16.473 11.3 339 9.5 102200 84
2004-05-12 13:08 51°7.989 2°16.643 13.4 341 9.4 102180 84
2004-05-12 13:09 51°8.132 2°16.871 13.3 341 9.4 102170 84
2004-05-12 13:10 51°8.267 2°17.108 13.1 340 9.5 102170 84
2004-05-12 13:11 51°8.379 2°17.359 12.7 336 9.5 102190 84
2004-05-12 13:12 51°8.47 2°17.63 11.9 335 9.4 102180 84
2004-05-12 13:13 51°8.514 2°17.955 11.5 317 9.4 102170 84
2004-05-12 13:14 51°8.527 2°18.264 10.8 316 9.5 102190 84
2004-05-12 13:15 51°8.48 2°18.575 10 310 9.5 102180 84
2004-05-12 13:16 51°8.459 2°18.914 10.7 312 9.5 102180 84
2004-05-12 13:17 51°8.443 2°19.229 10.3 306 9.5 102180 84
2004-05-12 13:18 51°8.463 2°19.371 8.2 316 9.5 102190 84
2004-05-12 13:19 51°8.482 2°19.412 10.1 317 9.5 102190 84
2004-05-12 13:20 51°8.495 2°19.447 9.1 313 9.5 102190 84
2004-05-12 13:21 51°8.503 2°19.498 8.9 302 9.5 102190 84
2004-05-12 13:22 51°8.503 2°19.559 7.7 306 9.5 102190 84
2004-05-12 13:23 51°8.51 2°19.617 9.5 311 9.5 102180 84
2004-05-12 13:24 51°8.521 2°19.672 10 310 9.6 102180 84
2004-05-12 13:25 51°8.527 2°19.731 8.4 306 9.6 102180 84
2004-05-12 13:26 51°8.529 2°19.793 7.9 307 9.5 102190 84
2004-05-12 13:27 51°8.531 2°19.863 8.9 310 9.6 102180 84
2004-05-12 13:28 51°8.531 2°19.927 9.8 313 9.5 102190 84
2004-05-12 13:30 51°8.534 2°20.005 8.7 311 9.5 102180 84
2004-05-12 13:31 51°8.539 2°20.07 10.1 308 9.5 102180 85
2004-05-12 13:32 51°8.542 2°20.14 8 317 9.5 102180 85
2004-05-12 13:33 51°8.543 2°20.209 8.9 228 9.5 102190 85
2004-05-12 13:34 51°8.546 2°20.274 9 309 9.4 102180 86
2004-05-12 13:35 51°8.552 2°20.337 7.8 313 9.4 102190 86
2004-05-12 13:36 51°8.564 2°20.395 9.3 317 9.4 102180 86
2004-05-12 13:37 51°8.576 2°20.451 9.4 316 9.5 102180 86
2004-05-12 13:38 51°8.586 2°20.505 9.5 43 9.5 102180 86
2004-05-12 13:39 51°8.595 2°20.559 9.3 322 9.5 102180 86
2004-05-12 13:40 51°8.608 2°20.61 10.1 335 9.4 102180 86
2004-05-12 13:41 51°8.625 2°20.658 8.5 330 9.4 102180 86
2004-05-12 13:42 51°8.64 2°20.702 10.3 322 9.3 102180 87
2004-05-12 13:43 51°8.655 2°20.749 10 327 9.3 102180 87
2004-05-12 13:44 51°8.672 2°20.801 9.5 322 9.3 102190 87
2004-05-12 13:45 51°8.69 2°20.856 8.3 332 9.3 102190 88
2004-05-12 13:46 51°8.711 2°20.913 9.3 326 9.3 102180 88
2004-05-12 13:47 51°8.731 2°20.975 9.5 320 9.3 102180 89
2004-05-12 13:48 51°8.752 2°21.032 10.5 318 9.3 102180 89
2004-05-12 13:49 51°8.78 2°21.08 9.6 330 9.3 102170 88
2004-05-12 13:50 51°8.809 2°21.128 10.3 321 9.4 102180 89
2004-05-12 13:51 51°8.836 2°21.18 9.3 334 9.4 102180 89
2004-05-12 13:52 51°8.86 2°21.228 10.9 326 9.4 102180 88
2004-05-12 13:53 51°8.882 2°21.269 9.9 335 9.4 102190 88
2004-05-12 13:54 51°8.899 2°21.275 10.2 5 9.5 102200 89
2004-05-12 13:55 51°8.917 2°21.252 11.3 360 9.4 102190 88
2004-05-12 13:56 51°8.965 2°21.289 12.2 333 9.3 102180 88
2004-05-12 13:57 51°9.051 2°21.422 14.1 342 9.3 102180 89
2004-05-12 13:58 51°9.18 2°21.618 14.8 336 9.3 102160 89
2004-05-12 13:59 51°9.315 2°21.833 14.4 340 9.3 102190 89
2004-05-12 14:00 51°9.467 2°22.073 14.6 338 9.3 102150 88
2004-05-12 14:01 51°9.604 2°22.287 15 339 9.3 102140 88
2004-05-12 14:02 51°9.743 2°22.507 17.1 341 9.3 102150 88
2004-05-12 14:03 51°9.88 2°22.725 15.2 339 9.3 102150 88
2004-05-12 14:05 51°10.029 2°22.965 14.1 346 9.3 102160 88
2004-05-12 14:06 51°10.156 2°23.197 15.1 340 9.3 102150 88
2004-05-12 14:07 51°10.291 2°23.459 14.9 339 9.4 102150 87
2004-05-12 14:08 51°10.404 2°23.774 13.5 331 9.4 102150 87
2004-05-12 14:09 51°10.497 2°24.041 15.9 335 9.4 102140 86
2004-05-12 14:10 51°10.596 2°24.323 15.3 333 9.5 102140 86
2004-05-12 14:11 51°10.702 2°24.617 14.5 340 9.6 102150 86
2004-05-12 14:12 51°10.764 2°24.922 14.4 323 9.6 102150 85
2004-05-12 14:13 51°10.803 2°25.25 15.7 322 9.6 102140 85
2004-05-12 14:14 51°10.843 2°25.569 15 329 9.6 102140 85
2004-05-12 14:15 51°10.884 2°25.877 14.3 326 9.5 102140 84
2004-05-12 14:16 51°10.926 2°26.187 14.2 325 9.5 102140 84
2004-05-12 14:17 51°10.971 2°26.499 13.6 329 9.5 102140 84
2004-05-12 14:18 51°11.016 2°26.808 14.1 319 9.6 102150 83
2004-05-12 14:19 51°11.063 2°27.118 13.5 324 9.6 102140 83
2004-05-12 14:20 51°11.153 2°27.405 13.7 327 9.6 102130 83
2004-05-12 14:21 51°11.249 2°27.684 14.2 330 9.7 102130 83
2004-05-12 14:22 51°11.327 2°27.968 14.1 323 9.7 102120 83
2004-05-12 14:23 51°11.403 2°28.259 13.5 329 9.8 102120 83
2004-05-12 14:24 51°11.476 2°28.549 14.2 324 9.8 102130 82
2004-05-12 14:25 51°11.549 2°28.842 14.1 328 9.8 102140 82
2004-05-12 14:26 51°11.623 2°29.14 11.5 335 9.8 102120 81
2004-05-12 14:27 51°11.693 2°29.435 14.8 327 9.8 102120 80
2004-05-12 14:28 51°11.762 2°29.725 15.5 325 9.9 102110 78
2004-05-12 14:29 51°11.832 2°30.023 15.9 328 9.9 102120 77
2004-05-12 14:30 51°11.904 2°30.323 14.7 330 10 102120 77
2004-05-12 14:31 51°11.975 2°30.625 13.2 329 10 102120 78
2004-05-12 14:32 51°12.045 2°30.932 15 326 10 102120 76
2004-05-12 14:33 51°12.113 2°31.226 15.1 325 10.1 102120 76
2004-05-12 14:34 51°12.183 2°31.526 14.5 325 10.1 102110 76
2004-05-12 14:35 51°12.255 2°31.833 14.2 325 10.1 102110 76
2004-05-12 14:36 51°12.327 2°32.133 16 332 10.2 102110 75
2004-05-12 14:37 51°12.397 2°32.436 15.4 336 10.2 102110 75
2004-05-12 14:38 51°12.472 2°32.739 15.4 334 10.2 102110 74
2004-05-12 14:39 51°12.546 2°33.044 14.6 331 10.2 102090 73
2004-05-12 14:40 51°12.621 2°33.352 16.3 330 10.3 102100 73
2004-05-12 14:41 51°12.701 2°33.645 14.6 330 10.3 102100 74
2004-05-12 14:42 51°12.782 2°33.941 15 334 10.4 102100 74
2004-05-12 14:43 51°12.864 2°34.241 15.8 336 10.4 102100 74
2004-05-12 14:44 51°12.946 2°34.536 16.7 336 10.4 102100 72
2004-05-12 14:45 51°13.024 2°34.824 15.8 319 10.4 102090 71
2004-05-12 14:46 51°13.104 2°35.116 16.1 329 10.5 102100 72
2004-05-12 14:47 51°13.19 2°35.403 15.2 335 10.5 102100 71
2004-05-12 14:48 51°13.28 2°35.69 16 330 10.5 102090 72
2004-05-12 14:49 51°13.37 2°35.976 16 331 10.5 102090 71
2004-05-12 14:50 51°13.46 2°36.267 14.1 336 10.5 102100 73
2004-05-12 14:51 51°13.551 2°36.553 15.6 337 10.5 102110 73
2004-05-12 14:52 51°13.641 2°36.84 14.7 338 10.5 102090 72
2004-05-12 14:53 51°13.719 2°37.13 14 331 10.5 102100 72
2004-05-12 14:54 51°13.788 2°37.439 13.3 330 10.5 102100 72
2004-05-12 14:55 51°13.847 2°37.746 14.9 331 10.5 102100 71
2004-05-12 14:56 51°13.906 2°38.056 15.8 333 10.5 102110 72
2004-05-12 14:57 51°13.975 2°38.37 14.2 334 10.6 102090 72
2004-05-12 14:58 51°14.013 2°38.694 14.9 318 10.5 102090 71
2004-05-12 14:59 51°14.009 2°39.026 13.1 317 10.5 102090 72
2004-05-12 15:00 51°13.985 2°39.369 12.6 313 10.5 102100 71
2004-05-12 15:01 51°13.957 2°39.706 13.1 40 10.5 102110 72
2004-05-12 15:02 51°13.97 2°40.032 13.5 319 10.5 102080 71
2004-05-12 15:03 51°13.98 2°40.351 13.7 43 10.5 102080 70
2004-05-12 15:04 51°13.992 2°40.67 14.8 320 10.5 102080 70
2004-05-12 15:05 51°14.03 2°40.971 16.6 321 10.5 102090 68
2004-05-12 15:06 51°14.071 2°41.277 15 321 10.5 102080 69
2004-05-12 15:07 51°14.102 2°41.584 16.1 40 10.5 102090 69
2004-05-12 15:08 51°14.129 2°41.89 15.9 321 10.5 102080 70
2004-05-12 15:09 51°14.158 2°42.204 14.4 316 10.5 102080 69
2004-05-12 15:10 51°14.185 2°42.505 14.5 314 10.6 102080 70
2004-05-12 15:11 51°14.216 2°42.812 13.7 322 10.6 102090 71
2004-05-12 15:12 51°14.243 2°43.121 14.7 324 10.6 102070 71
2004-05-12 15:13 51°14.272 2°43.431 15.8 318 10.6 102070 70
2004-05-12 15:14 51°14.301 2°43.743 14.1 319 10.6 102080 72
2004-05-12 15:15 51°14.33 2°44.057 13.7 321 10.6 102080 70
2004-05-12 15:16 51°14.363 2°44.375 13.6 317 10.6 102080 71
2004-05-12 15:17 51°14.396 2°44.693 14.9 319 10.6 102070 72
2004-05-12 15:18 51°14.434 2°45.014 14.6 322 10.5 102070 71
2004-05-12 15:19 51°14.482 2°45.331 15.2 316 10.5 102080 71
2004-05-12 15:20 51°14.528 2°45.653 14.8 323 10.5 102070 71
2004-05-12 15:21 51°14.575 2°45.981 13.6 328 10.4 102070 72
2004-05-12 15:22 51°14.623 2°46.316 12.9 336 10.4 102060 72
2004-05-12 15:23 51°14.672 2°46.647 14.7 328 10.4 102060 72
2004-05-12 15:24 51°14.719 2°46.974 14.2 323 10.4 102070 73
2004-05-12 15:25 51°14.766 2°47.3 13.6 323 10.4 102070 72
2004-05-12 15:26 51°14.812 2°47.631 12.4 319 10.4 102060 72
2004-05-12 15:27 51°14.857 2°47.95 13.3 317 10.4 102050 73
2004-05-12 15:28 51°14.903 2°48.275 15.7 320 10.4 102070 72
2004-05-12 15:29 51°14.946 2°48.596 14.8 329 10.4 102060 73
2004-05-12 15:30 51°14.988 2°48.92 14.6 318 10.4 102070 72
2004-05-12 15:31 51°15.027 2°49.235 14.4 315 10.4 102050 72
2004-05-12 15:32 51°15.06 2°49.558 13.2 319 10.4 102060 73
2004-05-12 15:33 51°15.089 2°49.887 14.5 319 10.4 102050 72
2004-05-12 15:34 51°15.12 2°50.204 15.4 315 10.4 102050 72
2004-05-12 15:35 51°15.155 2°50.529 14.6 317 10.4 102050 72
2004-05-12 15:36 51°15.189 2°50.849 13.8 318 10.4 102060 73
2004-05-12 15:37 51°15.223 2°51.167 15.8 324 10.3 102050 72
2004-05-12 15:38 51°15.251 2°51.487 11.7 319 10.3 102050 72
2004-05-12 15:39 51°15.26 2°51.811 13.3 316 10.3 102060 72
2004-05-12 15:40 51°15.249 2°52.144 12.9 45 10.3 102040 72
2004-05-12 15:41 51°15.184 2°52.469 11.4 305 10.3 102060 72
2004-05-12 15:42 51°15.104 2°52.788 14.8 309 10.3 102060 72
2004-05-12 15:43 51°15.025 2°53.1 12.9 311 10.3 102070 73
2004-05-12 15:44 51°14.925 2°53.412 10 294 10.3 102040 72
2004-05-12 15:45 51°14.809 2°53.717 11 308 10.3 102030 72
2004-05-12 15:46 51°14.703 2°54.026 13 302 10.3 102030 73
2004-05-12 15:47 51°14.606 2°54.334 15 228 10.3 102040 73
2004-05-12 15:48 51°14.523 2°54.658 9 297 10.3 102020 72
2004-05-12 15:49 51°14.405 2°54.954 11.5 295 10.3 102030 73
2004-05-12 15:50 51°14.314 2°55.176 8.3 287 10.4 102060 73
2004-05-12 15:51 51°14.252 2°55.291 7.2 267 10.4 102080 73
2004-05-12 15:52 51°14.199 2°55.36 8 230 10.3 102080 72
2004-05-12 15:53 51°14.135 2°55.41 8.1 229 10.3 102070 72
2004-05-12 15:54 51°14.031 2°55.474 4.4 238 10.3 102060 73
2004-05-12 15:55 51°13.896 2°55.566 4.9 237 10.3 102070 71
2004-05-12 15:56 51°13.78 2°55.672 4.7 253 10.3 102080 70
2004-05-12 15:57 51°13.697 2°55.794 5.3 285 10.4 102080 69
2004-05-12 15:58 51°13.652 2°55.91 5.9 294 10.5 102080 70
2004-05-12 15:59 51°13.62 2°56.008 3.6 310 10.5 102100 68
2004-05-12 16:00 51°13.602 2°56.076 3.7 280 10.5 102090 69